Location: Les Salelles
(44.4192°N, 4.1044°E)
Time: 16:12:16
(UTC+00:00)

Cosmos 1898 Rocket - Pass Details

Date: 20 January 2021
Orbit: 754 x 783 km, 74.0° (Epoch: 25 February)

Event Time Altitude Azimuth Distance (km) Brightness Sun altitude
Rises 18:16:10 0° 174° (S) 3,241 6.8 -17.5°
Reaches altitude 10° 18:18:43 10° 165° (SSE) 2,314 5.9 -18.0°
Maximum altitude 18:23:26 35° 102° (ESE) 1,240 4.1 -18.8°
Enters shadow 18:23:40 34° 96° (E) 1,244 4.1 -18.9°
